Вернуться в каталог

FENGYUN 1C DEB

АктивенPO
NORAD 30654·DEBRIS·🇨🇳 China

Запущен May 10, 1999 с Taiyuan Satellite Launch Center

Loading…

Ближайшие Пролёты (ближайшие 24 часа)

TLE

СвежийSource: Space-Track

Эпоха: Sep 14, 2026, 06:35 UTC

1 30654U 99025APL 26257.27490977  .00001373  00000-0  68787-3 0  9993
2 30654  99.2498 196.6770 0036020  41.0661 319.3214 14.18120328  5824

Отслеживайте FENGYUN 1C DEB в реальном времени с AllMySat

Download on the App Store